QPF
0.22 0.18 0.25 0.24 0.20 0.00 0.00 0.00 0.00 0.00 0.00 0.00 0.00 0.00 0.00 0.00 0.00 0.00 0.00 0.00 0.00 0.00 0.00 0.00 0.00 0.00 0.00 0.00 0.00 0.00 0.00 0.00
0.21 0.23 0.28 0.30 0.16 0.06 0.00 0.00 0.00 0.00 0.00 0.00 0.00 0.00 0.00 0.00 0.00 0.00 0.00 0.00 0.00 0.00 0.00 0.00 0.00 0.00 0.00 0.00 0.00 0.00 0.00 0.00
0.33 0.28 0.34 0.24 0.09 0.09 0.00 0.00 0.00 0.00 0.00 0.00 0.00 0.00 0.00 0.00 0.00 0.00 0.00 0.00 0.00 0.00 0.00 0.00 0.00 0.00 0.00 0.00 0.00 0.00 0.00 0.00
0.46 0.55 0.60 0.44 0.26 0.11 0.04 0.00 0.00 0.00 0.00 0.00 0.00 0.00 0.00 0.00 0.00 0.00 0.00 0.00 0.00 0.00 0.00 0.00 0.00 0.00 0.00 0.00 0.00 0.00 0.00 0.00
0.14 0.13 0.09 0.16 0.24 0.22 0.10 0.01 0.00 0.00 0.00 0.00 0.00 0.00 0.00 0.00 0.00 0.00 0.00 0.00 0.00 0.00 0.00 0.00 0.00 0.00 0.00 0.00 0.00 0.00 0.00 0.00
0.10 0.07 0.03 0.02 0.02 0.01 0.01 0.00 0.00 0.00 0.00 0.00 0.00 0.00 0.00 0.00 0.00 0.00 0.00 0.00 0.00 0.00 0.00 0.00 0.00 0.00 0.00 0.00 0.00 0.00 0.00 0.00
0.38 0.25 0.15 0.09 0.05 0.01 0.00 0.00 0.00 0.00 0.00 0.00 0.00 0.00 0.00 0.00 0.00 0.00 0.00 0.00 0.00 0.00 0.00 0.00 0.00 0.00 0.00 0.00 0.00 0.00 0.00 0.00
0.31 0.24 0.11 0.09 0.02 0.01 0.00 0.00 0.00 0.00 0.00 0.00 0.00 0.00 0.01 0.02 0.02 0.01 0.00 0.00 0.00 0.00 0.00 0.00 0.00 0.00 0.00 0.00 0.00 0.00 0.00 0.00
0.09 0.04 0.06 0.07 0.01 0.00 0.00 0.00 0.00 0.00 0.01 0.01 0.01 0.04 0.05 0.04 0.00 0.00 0.00 0.00 0.00 0.00 0.00 0.00 0.00 0.00 0.00 0.00 0.00 0.00 0.00 0.00
0.01 0.00 0.04 0.07 0.00 0.00 0.00 0.00 0.00 0.01 0.02 0.03 0.06 0.03 0.02 0.01 0.00 0.00 0.00 0.00 0.00 0.00 0.00 0.00 0.00 0.00 0.00 0.00 0.00 0.00 0.00 0.00
0.00 0.00 0.06 0.05 0.00 0.00 0.00 0.00 0.00 0.01 0.03 0.03 0.04 0.01 0.00 0.00 0.00 0.00 0.00 0.00 0.00 0.00 0.00 0.00 0.00 0.00 0.00 0.00 0.00 0.00 0.00 0.00
0.00 0.00 0.05 0.01 0.00 0.00 0.00 0.00 0.01 0.02 0.03 0.07 0.10 0.01 0.00 0.00 0.00 0.00 0.00 0.00 0.00 0.00 0.00 0.00 0.00 0.00 0.00 0.00 0.00 0.00 0.00 0.00
0.00 0.00 0.02 0.00 0.00 0.00 0.00 0.00 0.03 0.05 0.05 0.07 0.04 0.00 0.00 0.00 0.00 0.00 0.00 0.00 0.00 0.00 0.00 0.00 0.00 0.00 0.00 0.00 0.00 0.00 0.00 0.00
0.00 0.00 0.01 0.01 0.00 0.00 0.00 0.00 0.02 0.04 0.03 0.02 0.00 0.00 0.00 0.00 0.00 0.00 0.00 0.00 0.00 0.00 0.00 0.00 0.00 0.00 0.00 0.00 0.00 0.00 0.00 0.00
0.00 0.00 0.00 0.01 0.00 0.00 0.00 0.00 0.00 0.03 0.04 0.03 0.00 0.00 0.00 0.00 0.00 0.00 0.00 0.00 0.00 0.00 0.00 0.00 0.00 0.00 0.00 0.00 0.00 0.00 0.00 0.00
0.00 0.00 0.00 0.00 0.00 0.00 0.00 0.00 0.01 0.03 0.04 0.02 0.00 0.00 0.00 0.00 0.00 0.00 0.00 0.00 0.00 0.00 0.00 0.00 0.00 0.00 0.00 0.00 0.00 0.00 0.00 0.00
0.00 0.00 0.00 0.00 0.00 0.00 0.00 0.00 0.02 0.07 0.07 0.04 0.00 0.00 0.00 0.00 0.00 0.00 0.00 0.00 0.00 0.00 0.00 0.00 0.00 0.00 0.00 0.00 0.00 0.00 0.00 0.00
0.00 0.00 0.00 0.00 0.00 0.02 0.02 0.02 0.03 0.06 0.07 0.04 0.01 0.00 0.00 0.00 0.00 0.00 0.00 0.00 0.00 0.00 0.00 0.00 0.00 0.00 0.00 0.00 0.00 0.00 0.00 0.00
0.00 0.00 0.00 0.00 0.02 0.11 0.04 0.02 0.02 0.04 0.03 0.01 0.00 0.00 0.00 0.00 0.00 0.00 0.00 0.00 0.01 0.02 0.01 0.00 0.00 0.00 0.00 0.00 0.00 0.00 0.00 0.00
0.00 0.00 0.00 0.01 0.01 0.03 0.02 0.01 0.01 0.03 0.02 0.00 0.00 0.00 0.00 0.00 0.00 0.00 0.00 0.01 0.03 0.01 0.00 0.00 0.00 0.00 0.00 0.00 0.00 0.00 0.00 0.00
MSLP
1014.98 1015.68 1016.22 1017.10 1017.72 1018.32 1018.44 1018.54 1018.95 1019.27 1019.46 1020.02 1020.46 1021.14 1021.58 1021.93 1022.11 1022.50 1022.66 1022.82 1023.14 1023.40 1023.53 1023.94 1024.03 1024.25 1024.39 1024.18 1024.17 1023.85 1022.88 1023.14
1016.04 1016.85 1017.14 1017.77 1018.23 1018.80 1019.29 1019.41 1019.55 1019.67 1019.51 1020.21 1020.88 1021.48 1021.92 1022.32 1022.55 1022.67 1022.96 1023.16 1023.51 1023.85 1024.00 1024.15 1024.62 1024.75 1024.83 1024.81 1024.51 1024.02 1023.30 1023.28
1016.64 1017.48 1018.14 1018.65 1018.66 1018.89 1019.79 1020.36 1020.30 1020.46 1020.17 1020.50 1021.25 1021.62 1021.86 1022.18 1022.74 1023.25 1023.31 1023.80 1023.91 1024.15 1024.56 1024.75 1025.10 1025.14 1025.03 1025.13 1024.31 1023.87 1023.78 1023.78
1017.14 1017.55 1018.08 1018.66 1019.69 1019.24 1020.06 1020.76 1020.67 1020.80 1020.36 1020.71 1020.96 1021.50 1021.61 1022.29 1023.27 1023.51 1023.91 1024.14 1024.26 1024.83 1024.71 1024.71 1024.64 1024.31 1024.64 1024.70 1024.52 1024.61 1024.38 1024.28
1017.19 1018.36 1018.51 1019.49 1020.86 1020.52 1020.74 1020.46 1020.67 1020.89 1020.86 1020.70 1021.21 1021.55 1022.20 1022.54 1023.34 1023.60 1024.16 1024.19 1024.38 1024.62 1024.55 1024.49 1024.86 1024.77 1024.84 1024.93 1025.07 1024.73 1024.87 1024.79
1017.86 1018.68 1019.21 1019.24 1020.50 1020.71 1021.06 1021.07 1020.95 1021.16 1021.36 1021.12 1021.36 1021.54 1021.96 1022.45 1022.76 1023.33 1024.03 1023.86 1024.44 1024.55 1025.06 1025.48 1025.51 1025.68 1025.54 1025.49 1025.43 1025.02 1025.19 1025.06
1018.74 1018.95 1018.92 1019.45 1020.05 1020.37 1020.74 1020.73 1020.90 1021.20 1021.68 1021.32 1021.35 1021.52 1021.84 1022.42 1023.22 1023.77 1023.65 1024.34 1024.28 1024.62 1024.99 1025.38 1025.61 1025.90 1025.70 1025.52 1025.59 1025.68 1025.73 1025.39
1019.12 1019.79 1019.30 1019.84 1020.44 1020.30 1020.57 1020.76 1021.17 1021.59 1021.47 1021.31 1021.69 1021.77 1022.49 1023.27 1023.62 1023.48 1023.88 1023.96 1024.21 1024.63 1024.93 1025.23 1025.52 1025.68 1025.86 1025.95 1025.80 1025.95 1025.87 1025.82
1019.43 1020.08 1019.83 1019.95 1019.96 1020.20 1020.31 1020.61 1021.01 1020.95 1021.26 1021.79 1022.16 1022.62 1023.03 1023.22 1023.28 1023.33 1023.82 1024.46 1024.81 1025.05 1025.29 1025.48 1025.52 1025.72 1025.90 1026.06 1025.83 1026.15 1026.02 1026.07
1019.07 1019.41 1019.24 1019.31 1019.57 1020.03 1020.33 1020.44 1020.67 1021.01 1021.26 1021.69 1022.17 1022.59 1022.90 1022.92 1023.22 1023.58 1024.19 1024.47 1024.65 1024.81 1025.12 1025.35 1025.44 1025.54 1025.73 1025.76 1025.79 1025.92 1026.19 1026.21
1018.70 1018.82 1018.90 1019.19 1019.37 1019.61 1019.93 1020.35 1020.73 1021.09 1021.56 1021.68 1022.22 1022.64 1022.75 1022.79 1023.23 1023.85 1024.25 1024.35 1024.75 1024.82 1025.11 1025.47 1025.45 1025.37 1025.57 1025.73 1025.97 1025.83 1026.16 1026.14
1018.26 1018.57 1018.88 1019.11 1019.51 1019.91 1020.11 1020.33 1020.92 1021.34 1021.52 1021.73 1022.31 1022.51 1022.78 1022.99 1023.16 1023.76 1023.88 1024.23 1024.80 1024.99 1025.36 1025.53 1025.42 1025.64 1025.69 1025.71 1025.99 1026.03 1026.14 1026.15
1017.62 1017.93 1018.29 1018.75 1019.17 1019.35 1019.64 1020.22 1020.87 1021.29 1021.62 1021.92 1022.27 1022.96 1022.86 1022.72 1022.99 1023.74 1023.93 1024.30 1024.78 1025.08 1025.45 1025.63 1025.66 1025.98 1025.71 1025.13 1025.32 1026.09 1026.24 1026.08
1017.15 1017.50 1018.06 1018.40 1018.50 1018.75 1019.15 1019.73 1020.72 1021.03 1021.02 1021.98 1022.37 1022.61 1022.76 1022.80 1023.01 1023.50 1023.91 1024.22 1024.84 1025.12 1025.42 1025.47 1025.65 1026.10 1025.70 1025.37 1024.60 1024.68 1025.50 1025.81
1016.47 1016.87 1017.28 1017.88 1017.94 1018.37 1018.91 1019.44 1020.40 1020.78 1021.19 1022.07 1022.43 1022.76 1022.71 1022.67 1023.11 1023.35 1023.77 1023.93 1024.48 1025.01 1025.35 1025.63 1025.35 1025.88 1026.26 1025.79 1024.76 1024.44 1024.73 1024.52
1015.67 1016.09 1016.58 1017.14 1017.70 1018.04 1018.65 1018.92 1019.48 1020.11 1021.07 1021.87 1022.25 1022.48 1022.35 1022.73 1023.12 1023.37 1023.63 1023.76 1024.28 1024.74 1025.21 1025.54 1025.88 1025.44 1025.68 1025.96 1026.05 1026.00 1025.28 1024.40
1015.00 1015.52 1016.17 1016.78 1017.43 1017.86 1018.28 1018.58 1019.36 1020.67 1021.33 1021.78 1022.22 1022.19 1022.30 1022.60 1023.00 1023.22 1023.50 1023.81 1024.39 1025.18 1025.64 1025.79 1025.62 1025.66 1025.50 1025.54 1025.66 1025.77 1025.78 1025.58
1014.67 1015.21 1015.90 1016.43 1017.23 1017.72 1018.04 1018.37 1019.39 1020.31 1020.97 1021.27 1021.49 1021.64 1021.78 1022.26 1022.53 1022.94 1023.40 1024.08 1024.52 1025.43 1026.14 1026.03 1025.68 1025.65 1025.68 1025.76 1025.76 1025.60 1025.34 1025.24
1013.91 1014.47 1014.89 1015.69 1016.64 1017.18 1017.74 1018.00 1018.69 1019.41 1019.94 1020.39 1020.54 1020.87 1021.19 1021.57 1022.13 1022.80 1023.45 1023.97 1025.26 1026.06 1026.70 1026.08 1025.85 1025.75 1025.73 1025.61 1025.74 1025.73 1025.75 1025.69
1012.83 1013.30 1013.88 1014.72 1015.81 1016.66 1017.35 1017.60 1018.03 1018.52 1019.14 1019.51 1019.92 1020.35 1020.69 1021.26 1022.24 1022.84 1023.38 1025.22 1025.79 1026.14 1025.76 1025.50 1025.45 1025.72 1025.71 1025.69 1025.57 1025.63 1025.74 1025.69
Thickness
5673 5669 5664 5658 5653 5650 5650 5651 5650 5649 5649 5645 5643 5640 5636 5633 5634 5632 5633 5633 5631 5630 5630 5626 5625 5623 5622 5623 5621 5620 5625 5621
5661 5655 5652 5642 5640 5641 5639 5640 5641 5641 5644 5641 5637 5633 5629 5626 5627 5626 5627 5628 5627 5624 5624 5623 5619 5617 5615 5613 5615 5617 5619 5617
5650 5644 5641 5638 5637 5638 5631 5628 5629 5629 5636 5633 5628 5625 5622 5621 5621 5621 5623 5621 5622 5620 5616 5614 5610 5610 5610 5606 5613 5612 5611 5610
5644 5641 5638 5624 5618 5628 5618 5616 5619 5619 5626 5626 5626 5620 5620 5619 5616 5618 5616 5616 5616 5611 5612 5610 5606 5607 5606 5605 5605 5603 5602 5602
5641 5631 5631 5625 5612 5613 5609 5614 5614 5614 5617 5621 5619 5616 5614 5616 5613 5613 5609 5610 5609 5606 5606 5605 5601 5602 5602 5600 5597 5597 5593 5591
5627 5620 5617 5619 5611 5609 5607 5605 5609 5608 5606 5611 5612 5614 5615 5613 5613 5610 5606 5608 5603 5602 5598 5594 5593 5590 5592 5591 5590 5591 5586 5585
5613 5611 5614 5610 5606 5607 5604 5605 5605 5603 5600 5606 5611 5615 5615 5611 5607 5605 5606 5601 5602 5598 5595 5590 5589 5585 5586 5586 5583 5580 5577 5577
5604 5596 5603 5604 5600 5601 5602 5601 5598 5595 5600 5608 5610 5612 5609 5606 5602 5604 5601 5600 5598 5594 5592 5589 5585 5582 5580 5578 5577 5571 5570 5567
5599 5595 5598 5599 5599 5599 5597 5596 5595 5602 5605 5605 5607 5605 5603 5602 5602 5602 5597 5593 5592 5589 5586 5583 5580 5577 5574 5571 5570 5564 5561 5558
5597 5597 5601 5601 5599 5596 5595 5598 5602 5602 5603 5605 5605 5602 5600 5601 5598 5596 5593 5590 5588 5586 5582 5579 5576 5573 5569 5565 5562 5557 5552 5547
5598 5599 5601 5601 5600 5602 5601 5600 5601 5603 5603 5604 5600 5598 5599 5599 5595 5591 5588 5587 5582 5582 5578 5572 5570 5568 5563 5558 5552 5550 5542 5537
5603 5602 5602 5604 5603 5603 5602 5603 5603 5601 5601 5600 5597 5596 5596 5593 5593 5588 5586 5583 5578 5576 5570 5564 5562 5557 5553 5549 5542 5537 5532 5528
5611 5612 5611 5609 5608 5608 5607 5604 5601 5600 5597 5597 5595 5591 5591 5592 5590 5583 5582 5577 5572 5567 5560 5555 5552 5545 5543 5544 5539 5528 5522 5516
5617 5617 5613 5613 5613 5612 5610 5607 5600 5599 5599 5593 5591 5590 5588 5588 5584 5580 5575 5571 5564 5558 5552 5548 5543 5534 5532 5531 5533 5528 5518 5509
5623 5622 5620 5617 5618 5614 5610 5607 5600 5599 5596 5590 5588 5585 5584 5582 5577 5574 5569 5566 5558 5549 5543 5537 5535 5526 5519 5518 5521 5518 5508 5505
5629 5627 5624 5621 5617 5614 5609 5607 5603 5601 5594 5587 5583 5580 5579 5575 5571 5567 5562 5558 5549 5542 5534 5528 5521 5520 5513 5506 5499 5493 5493 5493
5633 5630 5625 5621 5616 5613 5609 5607 5602 5592 5586 5580 5576 5577 5573 5569 5564 5560 5554 5547 5539 5529 5521 5516 5513 5507 5503 5497 5489 5483 5477 5472
5633 5629 5624 5620 5614 5610 5607 5604 5596 5589 5584 5580 5576 5574 5570 5564 5559 5553 5546 5537 5529 5518 5509 5505 5502 5497 5491 5484 5477 5472 5467 5460
5635 5631 5627 5622 5613 5609 5604 5602 5597 5591 5587 5581 5578 5573 5568 5562 5554 5545 5536 5529 5517 5508 5497 5492 5487 5482 5477 5472 5465 5457 5450 5442
5640 5636 5632 5626 5617 5609 5605 5603 5599 5595 5589 5583 5576 5569 5563 5555 5544 5536 5528 5513 5504 5497 5492 5487 5481 5473 5467 5460 5452 5444 5435 5427